Regional Weather Roundup
Issued by NWS

Home | Current Version | Previous Version | Graphics & Text | Print | Product List | Glossary On
Versions: 1 2 3 4 5 6 7 8 9 10 11 12 13 14 15 16 17 18 19 20 21 22 23 24 25 26 27 28 29 30 31 32 33 34 35 36 37 38 39 40 41 42 43 44 45 46 47 48 49 50
000
ASUS43 KLSX 242059
RWRMO

WEATHER SUMMARY FOR MISSOURI
NATIONAL WEATHER SERVICE SPRINGFIELD MO
400 PM CDT THU JUL 24 2014

NOTE: "FAIR" INDICATES FEW OR NO CLOUDS BELOW 12,000 FEET WITH NO
       SIGNIFICANT WEATHER AND/OR OBSTRUCTIONS TO VISIBILITY.
       CURRENT SKY AND/OR WEATHER CONDITIONS ARE NOT AVAILABLE FOR
       CHILLICOTHE AND FARMINGTON.

MOZ001>031-035>038-043-044-053-054-242200-
...NORTHERN AND WESTERN MISSOURI...

CITY           SKY/WX    TMP DP  RH WIND       PRES   REMARKS
KANSAS CTY INT MOSUNNY   82  60  47 SE12      30.04F
KANSAS C DTWN  SUNNY     84  59  42 S12G20    30.03F
LEE`S SUMMIT   SUNNY     81  58  45 S9        30.06F
ST JOSEPH      SUNNY     81  60  48 S16       30.03F
CHILLICOTHE      N/A     80  57  45 SE12      30.08F
KIRKSVILLE     PTSUNNY   78  57  48 SE9       30.09F

$$
MOZ066>068-077>081-088>096-101>105-242200-
...SOUTHWEST MISSOURI...

CITY           SKY/WX    TMP DP  RH WIND       PRES   REMARKS
SPRINGFIELD    SUNNY     83  56  39 E12       30.09F
JOPLIN         SUNNY     87  62  43 VRB7      30.05F

$$
MOZ032>034-039>042-045>050-055>058-069>072-242200-
...CENTRAL MISSOURI...

CITY           SKY/WX    TMP DP  RH WIND       PRES   REMARKS
COLUMBIA       MOSUNNY   81  56  42 E9        30.09F
JEFFERSON CITY MOSUNNY   81  54  39 VRB3      30.07F
ROLLA          MOSUNNY   81  50  33 N5        30.07F
SEDALIA        SUNNY     82  57  42 SE6       30.08F
OSAGE BEACH    MOSUNNY   82  54  36 CALM      30.08F

$$
MOZ051-052-059>065-242200-
...EAST CENTRAL MISSOURI...

CITY           SKY/WX    TMP DP  RH WIND       PRES   REMARKS
ST LOUIS INTL  PTSUNNY   81  51  35 N9G16     30.09F
SPIRIT OF STL  MOSUNNY   80  51  36 NE8       30.07F
ST CHARLES     SUNNY     79  51  37 NE8       30.07F

$$
MOZ072>076-082>087-097>100-106>115-242200-
...SOUTH CENTRAL AND SOUTHEAST MISSOURI...

CITY           SKY/WX    TMP DP  RH WIND       PRES   REMARKS
CAPE GIRARDEAU MOSUNNY   78  61  55 N8        30.05F
FARMINGTON     MOSUNNY   79  55  44 NE8       30.11F
POPLAR BLUFF   SUNNY     81  51  35 NE9       30.05F
WEST PLAINS    SUNNY     81  55  40 VRB3      30.10S

$$



USA.gov is the U.S. government's official web portal to all federal, state and local government web resources and services.